Regional Weather Roundup
Issued by NWS Goodland, KS

Home | Current Version | Previous Version | Graphics & Text | Print | Product List | Glossary On
Versions: 1 2 3 4 5 6 7 8 9 10 11 12 13 14 15 16 17 18 19 20 21 22 23 24 25 26 27 28 29 30 31 32 33 34 35 36 37 38 39 40 41 42 43 44 45 46 47 48 49 50
000
ASUS43 KGLD 260708
RWRGLD

GOODLAND FORECAST AREA HOURLY WEATHER ROUNDUP
NATIONAL WEATHER SERVICE GOODLAND KS
100 AM MDT THU APR 26 2018

...OFFICIAL OBSERVATIONS...

CITY           SKY/WX    TMP DP  RH WIND       PRES   REMARKS
GOODLAND KS    PTCLDY    44  31  60 SW14      29.99S
HILL CITY KS   CLOUDY    40  35  83 W3        30.01F
IMPERIAL NEB   PTCLDY    40  34  79 S7        29.96F
MCCOOK NEB     MOCLDY    42  34  73 SW10      29.97F
AKRON CO       PTCLDY    48  32  53 SW17      29.95F
BURLINGTON CO  PTCLDY    38  32  79 SW9       29.99F
LIMON CO       PTCLDY    40  28  62 S3        30.01F
$$

...UNOFFICIAL OBSERVATIONS...

CITY           SKY/WX    TMP DP  RH WIND       PRES   REMARKS
COLBY KS       CLEAR     37  34  87 SW9       30.01S
NORTON KS      CLEAR     41  34  75 SW7       29.98
SHARON SPRINGS   N/A     39  33  78 SW13        N/A
KIT CARSON CO    N/A     35  29  80 CALM        N/A
YUMA CO        FAIR      41  28  60 SW9       29.95F
$$




USA.gov is the U.S. government's official web portal to all federal, state and local government web resources and services.